Preview of NWS' New Version of Forecast
This preview is not operational and should not be used for support decisions.

Regional Weather Roundup (RWR)

Issued by National Weather Service (NWS)

                            
000
ASUS45 KABQ 190710
RWRNM 
NEW MEXICO REGIONAL WEATHER ROUNDUP
NATIONAL WEATHER SERVICE ALBUQUERQUE NM
100 AM MDT FRI APR 19 2019

NOTE: "FAIR" MEANS FEW OR NO CLOUDS BELOW 12,000 FEET AGL WITH NO
       SIGNIFICANT WEATHER OR OBSTRUCTIONS TO VISION.

      THIS PRODUCT IS RELEASED AS TWO VERSIONS.  ONE VERSION NEAR
      THE TOP OF THE HOUR CONTAINING PRELIMINARY DATA FROM ALBUQUERQUE
      AND OTHER STATIONS.  A FINAL VERSION WITH ADDITIONAL DATA IS 
      ISSUED ABOUT 10 MINUTES AFTER THE HOUR.
 
NMZ501-503-504-510>518-190800-
NORTHWEST PLATEAU/NORTHCENTRAL MOUNTAINS
  
CITY           SKY/WX    TMP DP  RH WIND       PRES   REMARKS
FARMINGTON     FAIR      54  21  27 N7        30.23R                  
LOS ALAMOS       N/A     51  13  22 SW6       30.31R                  
SANTA FE       FAIR      47  33  58 SE7       30.26R                  
TAOS           FAIR      42  16  34 N5        30.31R                  
ANGEL FIRE       N/A     27  25  89 S7        30.34S WCI  20          

$$
NMZ402-403-502-505>509-190800-
WESTCENTRAL MOUNTAINS/SOUTHWEST MOUNTAINS
  
CITY           SKY/WX    TMP DP  RH WIND       PRES   REMARKS
GALLUP         FAIR      37  26  64 NE3       30.31R                  
GRANTS         FAIR      38  27  64 NW12      30.32S WCI  31          
SILVER CITY    FAIR      49  29  45 N12       30.24R                  

$$
NMZ407-409-411-412-190800-
SOUTHERN DESERTS
  
CITY           SKY/WX    TMP DP  RH WIND       PRES   REMARKS
DEMING         FAIR      57  34  41 W10       30.17S                  
LAS CRUCES     FAIR      58  23  25 W12       30.17S                  
HOLLOMAN AFB   FAIR      54  33  45 CALM      30.17S                  
ALAMOGORDO     FAIR      54  32  43 CALM      30.16S                  
T OR C         FAIR      59  24  26 NW9       30.17F                  

$$
NMZ519>523-190800-
CENTRAL VALLEYS/CENTRAL HIGHLANDS
  
CITY           SKY/WX    TMP DP  RH WIND       PRES   REMARKS
ALBUQUERQUE    FAIR      61  24  24 N9        30.22S                  
DOUBLE EAGLE   FAIR      52  28  38 N6        30.25R                  
MORIARTY ARPT  FAIR      47  36  64 E14G21    30.29R                  
CLINES CORNERS FAIR      38  31  76 E8        30.32R WCI  32          
BELEN          FAIR      52  34  51 CALM      30.23R                  
SOCORRO        FAIR      56  30  37 N6        30.20R                  

$$
NMZ524>526-539-540-190800-
SOUTHCENTRAL MOUNTAINS
  
CITY           SKY/WX    TMP DP  RH WIND       PRES   REMARKS
RUIDOSO        FAIR      54  19  26 CALM      30.29R                  

$$
NMZ527>531-190800-
NORTHEAST HIGHLANDS/NORTHEAST PLAINS
  
CITY           SKY/WX    TMP DP  RH WIND       PRES   REMARKS
LAS VEGAS      FAIR      40  34  79 CALM      30.31R                  
RATON          FAIR      39  29  67 S8        30.27R WCI  33          
CLAYTON        FAIR      38  23  55 NW7       30.23F WCI  33          

$$
NMZ532>537-190800-
EASTCENTRAL PLAINS
  
CITY           SKY/WX    TMP DP  RH WIND       PRES   REMARKS
SANTA ROSA     FAIR      48  33  55 CALM      30.25R                  
TUCUMCARI      FAIR      44  35  70 NE8       30.22R                  
CANNON AFB     FAIR      43  34  71 NE6       30.24R                  
CLOVIS AIRPORT FAIR      42  35  76 N7        30.23R                  

$$
NMZ028-029-538-190800-
SOUTHEAST PLAINS
  
CITY           SKY/WX    TMP DP  RH WIND       PRES   REMARKS
ROSWELL        FAIR      54  36  50 N8        30.19R                  
ARTESIA        FAIR      57  37  47 E10G18    30.16R                  
CARLSBAD       FAIR      55  36  48 NE8       30.12R                  
HOBBS          FAIR      54  34  47 E12       30.18S                  


$$